Regional Weather Roundup
Issued by NWS Wakefield, VA

Home | Current Version | Previous Version | Text Only | Print | Product List | Glossary Off
Versions: 1 2 3 4 5 6 7 8 9 10 11 12 13 14 15 16 17 18 19 20 21 22 23 24 25 26 27 28 29 30 31 32 33 34 35 36 37 38 39 40 41 42 43 44 45 46 47 48 49 50

000
ASUS41 KAKQ 040715
RWRAKQ

REGIONAL WEATHER ROUNDUP
NATIONAL WEATHER SERVICE WAKEFIELD VA
300 AM EDT SAT JUL 04 2015

Note: "fair" indicates few or no clouds below 12,000 feet with no
significant weather and/or obstructions to visibility. * = Denotes
station may not report precipitation (e.g., rain,snow,etc.),
thunder or fog.

VAZ042-051-052>054-056-040800-
NORTHERN VIRGINIA

CITY           SKY/WX    TMP DP  RH WIND       PRES   REMARKS
WASH NATIONAL  CLOUDY    74  67  78 CALM      29.91S
DULLES         CLOUDY    69  66  90 CALM      29.90F
FORT BELVOIR   MOCLDY    68  66  94 CALM      29.89F
QUANTICO       MOCLDY    73  66  78 N3        29.90S
FREDERICKSBRG* CLOUDY    72  71  98 CALM      29.88F
STAFFORD*      CLOUDY    67  65  94 CALM      29.93F FOG
WARRENTON      CLOUDY    68  68 100 CALM      29.90S FOG
CULPEPER*      CLOUDY    66  66  99 CALM      29.91S FOG
MANASSAS*      CLOUDY    70  70 100 CALM        N/A
LEESBURG*      CLOUDY    70  68  94 SW5       29.92S
WINCHESTER     CLOUDY    68  68 100 CALM      29.91S
FRONT ROYAL*   CLOUDY    64  64 100 CALM      29.89F
LURAY*         CLOUDY    68  68 100 CALM      29.91F FOG
$$

VAZ048-049-060>072-079>083-040800-
CENTRAL AND SOUTH CENTRAL VIRGINIA

CITY           SKY/WX    TMP DP  RH WIND       PRES   REMARKS
RICHMOND       CLOUDY    71  68  90 N7        29.86F
CHESTERFIELD*  NOT AVBL
PETERSBURG*    CLOUDY    73  73 100 CALM      29.86F FOG
HANOVER        CLOUDY    68  67  96 CALM      29.88F FOG
TAPPAHANNOCK*  PTCLDY    71  67  88 CALM      29.87F FOG
QUINTON*       CLOUDY    70  69  99 NE3       29.85F
CHARLOTTSVILLE CLOUDY    68  66  93 N3        29.89F FOG
GORDONSVILLE*  CLOUDY    68  66  94 CALM      29.90S FOG
ORANGE*        CLOUDY    70  68  94 CALM      29.92S FOG
LOUISA*        CLOUDY    70  66  88 CALM      29.89F FOG
BUMPASS*       CLOUDY    67  67  97 CALM      29.89S
FARMVILLE*     CLOUDY    71  71 100 CALM      29.88S FOG
CREWE*         CLOUDY    69  68  95 NW3       29.88S
FORT PICKETT*  CLOUDY    69  68  98 W10       29.88S
CHASE CITY*    CLOUDY    71  71 100 CALM      29.89F
CLARKSVILLE*   CLOUDY    70  70 100 CALM      29.89S
SOUTH HILL*    CLOUDY    69  68  98 W3        29.94S
LAWRENCEVILLE* NOT AVBL
EMPORIA*         N/A     70  70 100 W5        29.87S
$$

VAZ088>098-040800-
SOUTHEAST VIRGINIA

CITY           SKY/WX    TMP DP  RH WIND       PRES   REMARKS
NORFOLK        CLOUDY    74  72  93 S8        29.84S
VIRGINIA BEACH LGT RAIN  77  73  87 SW10      29.84F
NORFOLK NAVAL  LGT RAIN  74  72  93 S6        29.85F
WEST POINT*    CLOUDY    74  71  91 N5        29.86F VSB 1
SALUDA*        CLOUDY    74  71  90 E9        29.84F
NEWPORT NEWS   CLOUDY    75  73  93 SW8       29.83F
LANGLEY AFB    CLOUDY    75  73  94 S8        29.82F
FORT EUSTIS    CLOUDY    73 N/A N/A S6        29.81F
WILLIAMSBURG*    N/A     75  73  94 CALM      29.85S
HR EXEC AP*    PTSUNNY   75  72  88 S6        29.86F
FRANKLIN*      CLOUDY    73  72  97 SW6       29.85S
WAKEFIELD      CLOUDY    73  71  93 CALM      29.84F
$$

VAZ020-022-025-037-045-040800-
WEST CENTRAL AND SOUTHWEST VIRGINIA

CITY           SKY/WX    TMP DP  RH WIND       PRES   REMARKS
STAUNTON*      HVY RAIN  68  66  92 CALM      29.94F
WAYNESBORO*    CLOUDY    65  65  99 NW5       29.94S
HOT SPRINGS VA DRZL/FOG  63  63 100 SW5       30.00S VSB<1/4
LYNCHBURG      CLOUDY    68  67  96 CALM      29.92F FOG
DANVILLE       CLOUDY    71  69  93 CALM      29.90F FOG
SOUTH BOSTON*  CLOUDY    69  68  95 MISG      29.90S
MARTINSVILLE   LGT RAIN  69  69 100 CALM      29.95S
ROANOKE        CLOUDY    68  67  96 CALM      29.94F FOG
BLACKSBURG     CLOUDY    66  66 100 CALM      29.99F FOG
DUBLIN*        CLOUDY    67  67 100 CALM      29.98S FOG
MARION*        DRIZZLE   66  64  93 W7        30.01S
HILLSVILLE*    CLOUDY    64  64  99 SW5       29.98S
RICHLANDS*     FAIR      64  63  99 S5        29.98F
WISE*          CLOUDY    64  64 100 SW5       30.00S
ABINGDON*      RAIN      68  68 100 W7G17     29.97F
$$

MDZ021>025-VAZ099-100-040800-
SOUTHERN MARYLAND AND THE DELMARVA PENINSULA

CITY           SKY/WX    TMP DP  RH WIND       PRES   REMARKS
PATUXENT RIVER CLOUDY    73  68  84 E10       29.88F
BAY BRIDGE APT   N/A     70  64  83 E3        29.91S
LEONARDTOWN    CLOUDY    70  66  88 E3        29.90F
DOVER          CLOUDY    72  72 100 E10       29.89F
GEORGETOWN     CLOUDY    70  68  93 E5        29.91F
EASTON         CLOUDY    70  70 100 E3        29.94F
CAMBRIDGE      CLOUDY    72  68  88 E3        29.89F
SALISBURY      CLOUDY    70  68  93 NE6       29.89F
OCEAN CITY     CLOUDY    73  68  84 E5        29.89F
WALLOPS ISLAND CLOUDY    74  71  91 E9        29.88F
ACCOMACK*      CLOUDY    73  72  94 E7        29.85F
$$

NCZ012>017-030>032-040800-
NORTH CENTRAL AND EASTERN NORTH CAROLINA

CITY           SKY/WX    TMP DP  RH WIND       PRES   REMARKS
ROANOKE RAPIDS PTSUNNY   72  72 100 SW8       29.87F
RALEIGH        MOCLDY    70  69  97 SW3       29.91F
ELIZABETH CITY PTCLDY    75  73  93 SW13      29.87S
AHOSKIE*       MOCLDY   N/A N/A N/A CALM      29.87F HAZE
EDENTON*       CLOUDY    75  72  89 SW12      29.88F
CURRITUCK*     MOCLDY    76  74  93 SW7       29.87S
KILL DEVIL HLS PTCLDY    75  73  93 SW8       29.87F
MANTEO         MOCLDY    75  73  93 SW13      29.88F
CAPE HATTERAS  MOCLDY    76  70  82 W15G24    29.93S
TARBORO*         N/A     75  71  86 SW8       29.90S
GOLDSBORO      MOCLDY    74  72  91 SW6       29.89F
WASHINGTON     PTCLDY    74  71  91 SW9       29.91S
GREENVILLE     MOCLDY    73  73 100 W8        29.92S
NEW BERN       CLOUDY    74  70  87 SW9       29.94S
WILMINGTON     CLEAR     75  70  84 SW6       29.96S
$$

VAZ048-040800-
ELSEWHERE

CITY           SKY/WX    TMP DP  RH WIND       PRES   REMARKS
HARRISBURG PA  LGT RAIN  69  62  78 SE3       29.92F
BALTIMORE      CLOUDY    70  66  87 E3        29.91S
ANNAPOLIS      CLOUDY    72  67  84 E7        29.90S
ANDREWS AFB    MOCLDY    68  68 100 NE5       29.90S
PHILADELPHIA   CLOUDY    71  65  81 E3        29.94F
HENDERSON NC   CLOUDY    70  68  93 SW3       29.90F FOG
GREENSBORO     MOCLDY    69  68  96 SW6       29.91F
ROCKY MOUNT    MOCLDY    73  70  90 SW6       29.90S
$$

VAZ100-040800-
MARINE

STATION/POSITION TIME  TEMP    WIND        PRES    WAVE   SWELL
                       AIR SEA DIR/SP/G            HT/PER HT/PER
                 (UTC) (F)     (DEG/KT/KT) (MB)    (FT/S) (FT/S)
BRANDYWINE LGT   0600   72 72  110/  9/ 12 1013.5F
CAPE MAY NJ      0600   72 76  100/  4/  6 1013.1F
LEWES DE         0600   72 73  120/  6/  8 1013.2F
15NM E FENWICK I 0650   74 73              1012.2F   3/ 4
OCEAN-CITY-INLET 0600   74 73  120/  6/  9 1012.6F
WACHAPREAGUE VA  0600   75 79   90/  8/ 11 1011.5F
THOMAS POINT MD  0700   71 76  120/  8/  9 1013.1
GOOSES REEF MD   0700   73 77  120/ 10/ 12 1013.1F
COVE POINT MD    0600   72     140/ 11/ 14 1013.3F
SOLOMONS ISLAND  0600      79                N/A
BISHOPS HEAD MD  0600   73      90/  8/ 11 1012.3F
PINEY POINT MD   0600          130/ 10/ 11   N/A
CAMBRIDGE MD     0600   71 79   90/  7/ 10 1012.5F
LEWISETTA VA     0600   75 79  130/ 12/ 13 1011.5F
RAPPAHANNOCK LGT 0600           80/ 14/ 15 1011.5F
STINGRAY PT      0700   76 80  100/ 16/ 17 1010.3F   2/ 3
YORK RVR RNG VA  0600   76     130/ 19/ 21 1009.7F
YORKTOWN VA      0600   76 79  120/ 13/ 17 1009.9F
JAMESTOWN VA     0700   74 82  180/  2/  4   N/A
DOMINION TERM VA 0600   75     160/  7/  8 1010.4F
KIPTOPEKE VA     0600      80  100/  3/  5   N/A
CHES BAY BRIDGE  0600   74 70  130/  4/  4 1010.3F
CAPE HENRY VA    0600   74     190/  5/  7 1009.2F
CHESAPEAKE LGHT  0600   76     210/ 16/ 17 1011.3F
WILLOUBY STN VA  0600   75     150/  6/  7 1011.4F
CAPE HENRY BUOY  0628      78                N/A     3/ 4
1ST LANDING BUOY 0700      74              1010.3F   2/ 4
CAPE CHARLES BUO 0626      78                N/A     4/ 4   2/ 9
OFFSHORE WE BUOY 0611      78                N/A     4/ 8   2/ 8
64NM E OF VA BCH 0650   77 77  180/ 10/ 10 1010.9F   4/ 8   3/ 8
DUCK PIER NC     0600   78 75  220/ 16/ 18 1010.8F
44100 DUCK FRF   0624      77                N/A     3/15   2/15
44056 DUCK FRF   0611      77                N/A     2/ 8
OREGON INLET NC  0600   78 71  230/ 19/ 22 1012.1R
HATTERAS NC      0600   77 77  230/ 11/ 18 1013.1R
DIAMOND SHLS NC  0650   80 81  250/ 27/ 31 1013.0R   8/ 6   2/15
CAPE LOOKOUT NC  0700   80     230/ 16/ 22 1013.9F
$$


USA.gov is the U.S. government's official web portal to all federal, state and local government web resources and services.